Home   Weather   Sioux Falls   Past weeks

Flag for USA Past Weather in Sioux Falls, South Dakota, USA — Yesterday and Last 2 Weeks

Now
37 °F

Overcast.


Feels Like: 27 °F
Forecast: 33 / 41 °F
Wind: 18 mph from Northwest

Location: Foss Field

Current Time: Apr 26, 2017 at 3:16:12 am

Latest Report: Apr 26, 2017 at 1:56 am


Visibility: 10 mi

Pressure: 29.68 "Hg

Humidity: 100%

Dew Point: 37 °F

Location of Sioux FallsLocation

Past Weather in Sioux Falls — Graph

°F

Sioux Falls Temperature Yesterday

Maximum temperature yesterday: 43 °F (at 12:56 am)
Minimum temperature yesterday: 37 °F (at 8:56 pm)
Average temperature yesterday: 40 °F

High & Low Weather Summary for the Past Weeks

 TemperatureHumidityPressure
High71 °F (Apr 23, 5:56 pm)100% (Apr 11, 4:56 am)30.32 "Hg (Apr 11, 4:56 am)
Low26 °F (Apr 11, 4:56 am)23% (Apr 16, 5:56 pm)29.48 "Hg (Apr 24, 5:56 pm)
Average53 °F75%29.98 "Hg
* Reported Apr 11 1:56 am — Apr 26 1:56 am, Sioux Falls, Weather by CustomWeather, © 2017

Note: Actual official high and low records may vary slightly from our data, if they occured in-between our weather recording intervals... More about our weather records

Advertising

Sioux Falls Weather History for the Previous 24 Hours

Scroll right to see more
 ConditionsComfort  
Time TempWeatherWind HumidityBarometerVisibility
1:56 am
Wed, Apr 26
37 °FOvercast.18 mph100%29.68 "Hg10 mi
12:56 am37 °FOvercast.17 mph100%29.67 "Hg10 mi
11:56 pm
Tue, Apr 25
37 °FOvercast.16 mph100%29.68 "Hg10 mi
10:56 pm37 °FOvercast.17 mph100%29.69 "Hg10 mi
10:30 pm37 °FOvercast.17 mph100%29.66 "Hg10 mi
9:56 pm37 °FLow clouds.17 mph100%29.69 "Hg10 mi
9:14 pm37 °FLight rain. Low clouds.22 mph100%29.66 "Hg10 mi
8:56 pm37 °FLight rain. Overcast.20 mph100%29.69 "Hg7 mi
7:56 pm38 °FLight rain. Fog.16 mph100%29.69 "Hg4 mi
6:56 pm39 °FLight rain. Fog.13 mph100%29.69 "Hg2 mi
5:56 pm40 °FLight rain. Fog.16 mph100%29.65 "Hg6 mi
5:37 pm40 °FLight rain. Low clouds.16 mph100%29.63 "Hg10 mi
4:56 pm41 °FLight rain. Overcast.17 mph96%29.64 "Hg10 mi
3:56 pm42 °FLight rain. Mostly cloudy.13 mph100%29.64 "Hg7 mi
3:26 pm42 °FLight rain. Mostly cloudy.14 mph100%29.61 "Hg7 mi
2:56 pm41 °FRain. Fog.10 mph100%29.63 "Hg4 mi
1:56 pm41 °FRain. Fog.12 mph100%29.59 "Hg5 mi
1:08 pm41 °FLight rain. Low clouds.14 mph96%29.58 "Hg10 mi
12:56 pm41 °FLight rain. Fog.14 mph93%29.61 "Hg6 mi
11:56 am42 °FOvercast.17 mph85%29.62 "Hg10 mi
10:56 am42 °FLow clouds.13 mph85%29.62 "Hg10 mi
9:56 am41 °FLow clouds.9 mph89%29.65 "Hg10 mi
8:56 am41 °FLow clouds.5 mph89%29.65 "Hg10 mi
7:56 am41 °FLow clouds.12 mph93%29.60 "Hg9 mi
6:56 am41 °FLow clouds.12 mph93%29.56 "Hg10 mi
5:56 am41 °FLow clouds.15 mph93%29.57 "Hg10 mi
5:22 am41 °FLow clouds.14 mph93%29.57 "Hg10 mi
4:56 am42 °FOvercast.15 mph85%29.57 "Hg10 mi
4:34 am42 °FOvercast.14 mph89%29.58 "Hg10 mi
3:56 am42 °FLow clouds.12 mph89%29.57 "Hg10 mi
Weather by CustomWeather, © 2017

See weather overviewHow to use our weather pages